ELFIN-A (43617 NORAD) Tracking and Keplerian Element Data

This shows tracking and keplerian element data for the satellite.

Feedback or suggestion? Click here.




ElementValue
Catalog43617
NameELFIN-A
Epoch Orbit22399
Epoch Day248.16132188
Epoch Year2022
RAAN136.1845
Inclination93.0096
Eccentricity0.000676
Argument of Perigee97.3648
Mean Anonmoly262.8407
Mean Motion15.98358125
Decay Rate0.00633963
L11 43617U 18070E 22248.16132188 .00633963 17565-3 13742-2 0 9991
L22 43617 93.0096 136.1845 0006760 97.3648 262.8407 15.98358125223995



Live tracking and technical data element details for ELFIN-A (NORAD 43617). ELFIN-A can be tracked NOW for your location showing map with azimuth and elevation plus other details from your city location.







IsCatalogInMostPopularTable: catalog: 43617, numindb: 489
Update: records affected: 1



GetName: 43617 ELFIN-A

Hit Count: updated at: Mon, 28 Nov 2022 05:57:14 GMT